STARLINK-1916

Last updated on Tue Nov 24 2020 00:02:02 GMT+0000 (Coordinated Universal Time)

1 46766U 20074AD 20328.58334491 -.01087083 00000-0 -19287-1 0 9991 2 46766 53.0555 13.6150 0001146 65.0329 258.4396 15.52445435 1856

Satellite not in orbit

STARLINK-1916